Location: Gugi
(45.4667°N, 11.1000°E)
Time: 10:09:15
(UTC+00:00)

ATLAS 3B R/B - Pass Details

Date: 17 November 2019
Orbit: 1030 x 1165 km, 63.8° (Epoch: 03 December)

Event Time Altitude Azimuth Distance (km) Brightness Sun altitude
Rises 19:23:19 0° 323° (NW) 3,792 6.2 -38.3°
Reaches altitude 10° 19:26:08 10° 331° (NNW) 2,843 5.3 -38.8°
Enters shadow 19:28:32 22° 344° (NNW) 2,123 4.4 -39.2°
